FLOCK 2E'-13 (41761 NORAD) Tracking and Keplerian Element Data

This shows tracking and keplerian element data for the satellite.

Feedback or suggestion? Click here.




ElementValue
Catalog41761
NameFLOCK 2E'-13
Epoch Orbit9818
Epoch Day154.58100078
Epoch Year2018
RAAN31.362
Inclination51.6029
Eccentricity0.0010502
Argument of Perigee256.327
Mean Anonmoly103.6931
Mean Motion16.36585548
Decay Rate0.08792996
L11 41761U 98067KH 18154.58100078 .08792996 12263-4 92953-3 0 9996
L22 41761 51.6029 31.3620 0010502 256.3270 103.6931 16.36585548 98182

Live tracking and technical data element details for FLOCK 2E'-13 (NORAD 41761). FLOCK 2E'-13 can be tracked NOW for your location showing map with azimuth and elevation plus other details from your city location.

Track the satellite on the map from your city or location and see movement details for azimuth, elevation, latitude, longitude, range, height, and movement on the map or in text.







IsCatalogInMostPopularTable: catalog: 41761, numindb: 110
Update: records affected: 1



GetName: 41761 FLOCK 2E'-13

Hit Count: updated at: Mon, 12 Nov 2018 18:42:27 GMT